User: anonymous   Login
Location: Newark
(37.9800°N, 91.3000°W)
Time: 17:59:19
(UTC+00:00)
Language:

JY1SAT - Orbit

View from above orbital plane
View from above orbital plane
View from above satellite
View from above satellite

Ground track
Ground track

The orbit data is extracted from the following two-line orbital elements,

1 43803U 18099AX  19349.17554214 -.00000129  00000-0 -64172-5 0  9999
2 43803  97.7258  58.7384 0016645  90.2838 270.0290 14.95381071 56241
Epoch (UTC): 15 December 2019 04:12:46
Eccentricity: 0.0016645
inclination: 97.7258°
perigee height: 569 km
apogee height: 593 km
right ascension of ascending node: 58.7384°
argument of perigee: 90.2838°
revolutions per day: 14.95381071
mean anomaly at epoch: 270.0290°
orbit number at epoch: 5624

The dashed part of the orbit path shows where the satellite is in the earth's shadow,  

DLR